Location: Rounton
(54.4000°N, 1.3500°W)
Time: 13:34:26
(UTC+01:00)

deb Delta 126 - Pass Details

Date: 08 July 2022
Orbit: 1120 x 1970 km, 101.5° (Epoch: 15 August)

Event Time Altitude Azimuth Distance (km) Brightness Sun altitude
Rises 22:50:00 0° 23° (NNE) 5,145 ? -7.5°
Reaches altitude 10° 22:53:04 10° 19° (NNE) 4,228 ? -7.7°
Maximum altitude 23:02:54 49° 310° (NW) 2,408 ? -8.5°
Drops below altitude 10° 23:13:07 10° 241° (WSW) 4,373 ? -9.2°
Sets 23:16:22 0° 236° (WSW) 5,332 ? -9.4°
